Location: Kerguer�zec
(48.4509°N, 4.7600°W)
Time: 00:42:59
(UTC+00:00)

ISS - Pass Details

Date: 04 March 2021
Orbit: 418 x 422 km, 51.6° (Epoch: 10 April)

Event Time Altitude Azimuth Distance (km) Brightness Sun altitude
Exits shadow 06:11:29 - 292° (WNW) 1,556 -1.5 -7.9°
Reaches altitude 10° 06:11:37 10° 293° (WNW) 1,501 -1.5 -7.9°
Maximum altitude 06:14:58 65° 15° (NNE) 464 -3.5 -7.4°
Drops below altitude 10° 06:18:19 10° 99° (E) 1,498 0.8 -6.8°
Sets 06:20:26 0° 102° (ESE) 2,361 2.3 -6.4°
